Hourly Weather Gogolinek

Today, 7 May, Friday

Time Temperature Precipitation Wind Pressure Humidity
00:00 +3°C° 0 mm 2 mps 744 mmHg 83%
01:00 +3°C° 0 mm 2 mps 744 mmHg 83%
02:00 +4°C° 0 mm 1 mps 743 mmHg 83%
03:00 +4°C° 0 mm 1 mps 743 mmHg 82%
04:00 +4°C° 0 mm 1 mps 743 mmHg 82%
05:00 +5°C° 0 mm 1 mps 743 mmHg 79%
06:00 +6°C° 0 mm 1 mps 743 mmHg 76%
07:00 +7°C° 0 mm 1 mps 743 mmHg 72%
08:00 +9°C° 0.1 mm 1 mps 743 mmHg 67%
09:00 +10°C° 0.1 mm 1 mps 743 mmHg 61%
10:00 +11°C° 0.1 mm 1 mps 744 mmHg 55%
11:00 +10°C° 0.3 mm 2 mps 744 mmHg 58%
12:00 +9°C° 0.3 mm 3 mps 744 mmHg 61%
13:00 +9°C° 0.3 mm 3 mps 744 mmHg 64%
14:00 +7°C° 0.9 mm 4 mps 744 mmHg 71%
15:00 +6°C° 0.9 mm 4 mps 745 mmHg 79%
16:00 +5°C° 0.9 mm 5 mps 745 mmHg 86%
17:00 +5°C° 0.4 mm 5 mps 746 mmHg 85%
18:00 +5°C° 0.4 mm 4 mps 746 mmHg 83%
19:00 +4°C° 0.4 mm 4 mps 747 mmHg 82%
20:00 +3°C° 0 mm 3 mps 747 mmHg 86%
21:00 +3°C° 0 mm 3 mps 748 mmHg 89%
22:00 +2°C° 0 mm 3 mps 748 mmHg 93%
23:00 +2°C° 0 mm 3 mps 749 mmHg 94%

Tomorrow, 8 May, Saturday

Time Temperature Precipitation Wind Pressure Humidity
00:00 0°C° 0 mm 4 mps 749 mmHg 95%
01:00 0°C° 0 mm 5 mps 749 mmHg 96%
02:00 0°C° 0 mm 4 mps 750 mmHg 95%
03:00 0°C° 0 mm 4 mps 750 mmHg 94%
04:00 0°C° 0 mm 4 mps 750 mmHg 94%
05:00 +1°C° 0 mm 4 mps 751 mmHg 91%
06:00 +2°C° 0 mm 5 mps 751 mmHg 88%
07:00 +3°C° 0 mm 5 mps 752 mmHg 85%
08:00 +5°C° 0 mm 5 mps 752 mmHg 78%
09:00 +5°C° 0 mm 6 mps 752 mmHg 71%
10:00 +8°C° 0 mm 6 mps 752 mmHg 65%
11:00 +8°C° 0.1 mm 6 mps 752 mmHg 59%
12:00 +9°C° 0.1 mm 6 mps 753 mmHg 53%
13:00 +10°C° 0.1 mm 6 mps 753 mmHg 48%
14:00 +10°C° 0 mm 5 mps 753 mmHg 48%
15:00 +10°C° 0 mm 5 mps 753 mmHg 48%
16:00 +11°C° 0 mm 4 mps 753 mmHg 48%
17:00 +10°C° 0 mm 4 mps 753 mmHg 54%
18:00 +9°C° 0 mm 3 mps 753 mmHg 60%
19:00 +8°C° 0 mm 2 mps 753 mmHg 65%
20:00 +7°C° 0 mm 2 mps 753 mmHg 67%
21:00 +7°C° 0 mm 1 mps 753 mmHg 69%
22:00 +6°C° 0 mm 1 mps 754 mmHg 71%
23:00 +5°C° 0 mm 2 mps 754 mmHg 73%

Day after tomorrow, 9 May, Sunday

Time Temperature Precipitation Wind Pressure Humidity
00:00 +4°C° 0 mm 2 mps 754 mmHg 74%
01:00 +3°C° 0 mm 3 mps 754 mmHg 75%
02:00 +3°C° 0 mm 3 mps 753 mmHg 77%
03:00 +3°C° 0 mm 3 mps 753 mmHg 78%
04:00 +3°C° 0 mm 4 mps 753 mmHg 80%
05:00 +5°C° 0 mm 4 mps 753 mmHg 76%
06:00 +6°C° 0 mm 5 mps 752 mmHg 72%
07:00 +8°C° 0 mm 5 mps 752 mmHg 68%
08:00 +9°C° 0 mm 5 mps 752 mmHg 69%
09:00 +10°C° 0 mm 5 mps 752 mmHg 69%
10:00 +10°C° 0 mm 5 mps 752 mmHg 70%
11:00 +14°C° 0 mm 5 mps 752 mmHg 64%
12:00 +16°C° 0 mm 6 mps 751 mmHg 57%
13:00 +19°C° 0 mm 6 mps 751 mmHg 51%
14:00 +19°C° 0 mm 6 mps 751 mmHg 54%
15:00 +19°C° 0 mm 5 mps 751 mmHg 57%
16:00 +19°C° 0 mm 5 mps 751 mmHg 60%
17:00 +17°C° 0 mm 5 mps 751 mmHg 67%
18:00 +17°C° 0 mm 4 mps 751 mmHg 74%
19:00 +14°C° 0 mm 3 mps 750 mmHg 81%
20:00 +13°C° 0 mm 4 mps 751 mmHg 82%
21:00 +12°C° 0 mm 4 mps 751 mmHg 83%
22:00 +11°C° 0 mm 4 mps 751 mmHg 84%
23:00 +11°C° 0 mm 4 mps 751 mmHg 83%

10 May, Monday

Time Temperature Precipitation Wind Pressure Humidity
00:00 +10°C° 0 mm 4 mps 751 mmHg 82%
01:00 +8°C° 0 mm 4 mps 751 mmHg 81%
02:00 +8°C° 0 mm 4 mps 751 mmHg 80%
03:00 +8°C° 0 mm 4 mps 750 mmHg 78%
04:00 +8°C° 0 mm 5 mps 750 mmHg 76%
05:00 +9°C° 0 mm 5 mps 750 mmHg 74%
06:00 +12°C° 0 mm 5 mps 750 mmHg 72%
07:00 +13°C° 0 mm 5 mps 750 mmHg 70%
08:00 +15°C° 0 mm 6 mps 750 mmHg 64%
09:00 +17°C° 0 mm 7 mps 750 mmHg 59%
10:00 +20°C° 0 mm 7 mps 750 mmHg 54%
11:00 +21°C° 0 mm 7 mps 750 mmHg 53%
12:00 +21°C° 0 mm 8 mps 749 mmHg 53%
13:00 +22°C° 0 mm 8 mps 749 mmHg 53%
14:00 +22°C° 0 mm 7 mps 749 mmHg 56%
15:00 +22°C° 0 mm 7 mps 749 mmHg 59%
16:00 +22°C° 0 mm 6 mps 749 mmHg 62%
17:00 +21°C° 0 mm 5 mps 749 mmHg 69%
18:00 +19°C° 0 mm 4 mps 750 mmHg 75%
19:00 +18°C° 0 mm 3 mps 750 mmHg 81%
20:00 +17°C° 0 mm 3 mps 750 mmHg 85%
21:00 +16°C° 0 mm 3 mps 750 mmHg 89%
22:00 +14°C° 0 mm 3 mps 750 mmHg 92%
23:00 +13°C° 0 mm 3 mps 750 mmHg 93%

11 May, Tuesday

Time Temperature Precipitation Wind Pressure Humidity
00:00 +13°C° 0 mm 3 mps 749 mmHg 93%
01:00 +13°C° 0 mm 3 mps 749 mmHg 94%
02:00 +12°C° 0 mm 3 mps 749 mmHg 93%
03:00 +12°C° 0 mm 4 mps 749 mmHg 93%
04:00 +12°C° 0 mm 4 mps 749 mmHg 93%
05:00 +13°C° 0 mm 4 mps 749 mmHg 88%
06:00 +15°C° 0 mm 5 mps 749 mmHg 83%
07:00 +16°C° 0 mm 5 mps 749 mmHg 77%
08:00 +17°C° 0 mm 6 mps 748 mmHg 72%
09:00 +20°C° 0 mm 6 mps 748 mmHg 67%
10:00 +22°C° 0 mm 7 mps 748 mmHg 62%
11:00 +23°C° 0 mm 7 mps 748 mmHg 60%
12:00 +23°C° 0 mm 7 mps 747 mmHg 58%
13:00 +24°C° 0 mm 7 mps 747 mmHg 56%
14:00 +24°C° 0 mm 7 mps 747 mmHg 58%
15:00 +24°C° 0 mm 7 mps 747 mmHg 61%
16:00 +24°C° 0 mm 7 mps 746 mmHg 63%
17:00 +23°C° 0 mm 6 mps 746 mmHg 68%
18:00 +22°C° 0 mm 5 mps 746 mmHg 73%
19:00 +20°C° 0 mm 4 mps 746 mmHg 78%
20:00 +19°C° 0 mm 4 mps 746 mmHg 81%
21:00 +19°C° 0 mm 4 mps 746 mmHg 83%
22:00 +17°C° 0 mm 5 mps 746 mmHg 85%
23:00 +16°C° 0 mm 5 mps 746 mmHg 84%

12 May, Wednesday

Time Temperature Precipitation Wind Pressure Humidity
00:00 +15°C° 0 mm 5 mps 746 mmHg 84%
01:00 +15°C° 0 mm 5 mps 746 mmHg 83%
02:00 +14°C° 0 mm 5 mps 746 mmHg 82%
03:00 +13°C° 0 mm 5 mps 745 mmHg 81%
04:00 +13°C° 0 mm 5 mps 745 mmHg 81%
05:00 +13°C° 0 mm 5 mps 745 mmHg 79%
06:00 +14°C° 0 mm 6 mps 745 mmHg 78%
07:00 +15°C° 0 mm 6 mps 745 mmHg 77%
08:00 +16°C° 0 mm 6 mps 745 mmHg 72%
09:00 +19°C° 0 mm 6 mps 745 mmHg 68%
10:00 +21°C° 0 mm 7 mps 745 mmHg 64%
11:00 +22°C° 0 mm 7 mps 744 mmHg 62%
12:00 +23°C° 0 mm 7 mps 744 mmHg 59%
13:00 +24°C° 0 mm 7 mps 744 mmHg 57%
14:00 +24°C° 0 mm 7 mps 744 mmHg 58%
15:00 +24°C° 0 mm 7 mps 744 mmHg 59%
16:00 +24°C° 0 mm 7 mps 743 mmHg 61%
17:00 +22°C° 0 mm 7 mps 743 mmHg 64%
18:00 +21°C° 0 mm 7 mps 743 mmHg 67%
19:00 +20°C° 0 mm 7 mps 743 mmHg 70%
20:00 +18°C° 0 mm 7 mps 743 mmHg 72%
21:00 +17°C° 0 mm 6 mps 743 mmHg 74%
22:00 +16°C° 0 mm 6 mps 743 mmHg 75%
23:00 +16°C° 0 mm 5 mps 743 mmHg 80%
Show more